Flag for Ireland Weather past 2 weeks in Cork, Ireland

36 °F

Passing clouds.

Feels Like: 27 °F
Forecast: 38 / 48 °F
Wind: 12 mph from Southwest

Location: Cork Airport

Current Time: Nov 28, 2015 at 1:26:52 AM

Latest Report: Nov 28, 2015 at 12:00 AM

Visibility: N/A

Pressure: 29.98 "Hg

Humidity: 93%

Dew point: 34 °F

Location of CorkLocation

Historic Weather in Cork — Graph


Cork temperature yesterday

Maximum temperature yesterday: 52 °F (at 8:30 AM)
Minimum temperature yesterday: 36 °F (at 5:30 PM)
Average temperature yesterday: 44 °F

Past Weeks' High & Low Weather Summary

High59 °F (Nov 14, 11:30 AM)100% (Nov 14, 5:00 AM)30.27 "Hg (Nov 14, 5:00 AM)
Low36 °F (Nov 20, 10:00 PM)61% (Nov 21, 11:30 AM)29.33 "Hg (Nov 17, 9:30 AM)
Average47 °F89%29.94 "Hg
* Reported Midnight between Nov 12 and Nov 13 — Midnight between Nov 27 and Nov 28, Cork, Weather by CustomWeather, © 2015

Note: Actual official high and low records may vary slightly from our data, if they occured in-between our weather recording intervals... More about our weather records


Cork weather history for previous 24 hours

Time TempWeatherWind HumidityBarometerVisibility
12:00 AM
Sat, Nov 28
36 °FPassing clouds.12 mph93%29.98 "HgN/A
11:00 PM
Fri, Nov 27
37 °FPassing clouds.14 mph87%29.98 "HgN/A
10:30 PM37 °FPassing clouds.13 mph87%29.98 "HgN/A
10:00 PM37 °FPassing clouds.12 mph87%29.98 "HgN/A
9:30 PM37 °FPassing clouds.10 mph81%29.98 "HgN/A
9:00 PM37 °FPassing clouds.13 mph87%29.98 "HgN/A
8:30 PM37 °FPassing clouds.17 mph87%29.98 "HgN/A
8:00 PM39 °FSprinkles. Passing clouds.17 mph75%29.98 "HgN/A
7:30 PM37 °FPassing clouds.14 mph81%29.98 "HgN/A
7:00 PM37 °FPassing clouds.14 mph81%29.95 "HgN/A
6:30 PM37 °FPassing clouds.12 mph87%29.95 "HgN/A
6:00 PM37 °FPassing clouds.14 mph87%29.92 "HgN/A
5:30 PM36 °FPassing clouds.13 mph93%29.92 "HgN/A
5:00 PM37 °FPassing clouds.18 mph93%29.89 "HgN/A
4:30 PM41 °FPassing clouds.21 mph76%29.89 "HgN/A
4:00 PM41 °FPassing clouds.23 mph76%29.86 "HgN/A
3:30 PM41 °FPassing clouds.22 mph87%29.83 "HgN/A
3:00 PM41 °FPassing clouds.25 mph87%29.80 "HgN/A
2:30 PM43 °FPassing clouds.29 mph87%29.80 "HgN/A
2:00 PM43 °FSprinkles. Broken clouds.26 mph87%29.77 "HgN/A
1:30 PM45 °FPartly sunny.28 mph81%29.74 "HgN/A
1:00 PM46 °FBroken clouds.18 mph87%29.74 "HgN/A
12:30 PM46 °FBroken clouds.18 mph87%29.74 "HgN/A
12:00 PM45 °FLight rain. Broken clouds.20 mph87%29.74 "HgN/A
11:30 AM46 °FLight rain. Broken clouds.23 mph93%29.74 "HgN/A
11:00 AM48 °FLight rain. Partly sunny.22 mph94%29.74 "HgN/A
10:30 AM50 °FLight rain. Partly sunny.24 mph94%29.71 "Hg5 mi
10:00 AM52 °FLight rain. Partly sunny.18 mph100%29.68 "Hg5 mi
9:30 AM52 °FLight rain. Partly sunny.21 mph100%29.68 "Hg4 mi
9:00 AM52 °FLight rain. Partly sunny.20 mph100%29.71 "Hg2 mi
8:30 AM52 °FLight rain. Partly sunny.16 mph94%29.74 "Hg3 mi
8:00 AM50 °FLight rain. Passing clouds.21 mph100%29.74 "HgN/A
6:30 AM50 °FPassing clouds.16 mph100%29.80 "HgN/A
6:00 AM50 °FPassing clouds.15 mph100%29.83 "HgN/A
5:30 AM50 °FPassing clouds.14 mph100%29.83 "Hg3 mi
5:00 AM50 °FPassing clouds.15 mph100%29.86 "HgN/A
4:00 AM48 °FPassing clouds.10 mph100%29.92 "Hg5 mi
3:30 AM48 °FPassing clouds.10 mph100%29.95 "HgN/A
3:00 AM48 °FPassing clouds.13 mph100%29.95 "HgN/A
2:30 AM48 °FPassing clouds.10 mph100%29.98 "Hg4 mi
2:00 AM48 °FPassing clouds.10 mph100%29.98 "HgN/A
1:30 AM48 °FPassing clouds.9 mph100%30.01 "HgN/A
1:00 AM48 °FPassing clouds.9 mph100%30.01 "HgN/A
Weather by CustomWeather, © 2015

See weather overviewHow to use our weather pages